TimeCDT,TemperatureF,Dew PointF,Humidity,Sea Level PressureIn,VisibilityMPH,Wind Direction,Wind SpeedMPH,Gust SpeedMPH,PrecipitationIn,Events,Conditions,WindDirDegrees,DateUTC
12:15 AM,71.4,21.2,15,29.97,10.0,WSW,15.0,18.4,N/A,,Clear,250,2013-03-31 05:15:00
12:35 AM,73.2,21.2,14,29.97,10.0,SW,13.8,20.7,N/A,,Clear,230,2013-03-31 05:35:00
12:55 AM,74.8,23.0,14,29.97,10.0,WSW,10.4,-,N/A,,Clear,250,2013-03-31 05:55:00
1:15 AM,71.6,23.4,16,29.96,10.0,WSW,8.1,-,N/A,,Clear,240,2013-03-31 06:15:00
1:35 AM,75.7,24.3,15,29.96,10.0,SW,8.1,19.6,N/A,,Clear,230,2013-03-31 06:35:00
1:55 AM,71.4,22.8,16,29.96,10.0,WSW,5.8,-,N/A,,Clear,250,2013-03-31 06:55:00
2:15 AM,70.7,23.9,17,29.96,10.0,WSW,13.8,-,N/A,,Clear,240,2013-03-31 07:15:00
2:35 AM,71.4,23.7,17,29.96,10.0,WSW,12.7,-,N/A,,Clear,250,2013-03-31 07:35:00
2:55 AM,69.8,23.7,18,29.96,10.0,West,10.4,-,N/A,,Clear,260,2013-03-31 07:55:00
3:15 AM,69.8,23.5,18,29.96,10.0,West,8.1,-,N/A,,Clear,270,2013-03-31 08:15:00
3:35 AM,68.7,24.8,19,29.95,10.0,West,8.1,-,N/A,,Clear,280,2013-03-31 08:35:00
3:55 AM,69.1,24.8,19,29.95,10.0,WNW,8.1,-,N/A,,Clear,290,2013-03-31 08:55:00
4:15 AM,68.4,25.0,20,29.95,10.0,West,8.1,-,N/A,,Scattered Clouds,270,2013-03-31 09:15:00
4:35 AM,67.3,25.7,21,29.94,10.0,West,9.2,-,N/A,,Scattered Clouds,270,2013-03-31 09:35:00
4:55 AM,66.0,26.4,22,29.93,10.0,West,9.2,-,N/A,,Scattered Clouds,270,2013-03-31 09:55:00
5:15 AM,70.5,24.4,18,29.93,10.0,West,11.5,-,N/A,,Scattered Clouds,280,2013-03-31 10:15:00
5:35 AM,69.3,24.4,19,29.94,10.0,West,10.4,-,N/A,,Clear,280,2013-03-31 10:35:00
5:55 AM,66.9,24.6,20,29.95,10.0,NNW,8.1,-,N/A,,Clear,330,2013-03-31 10:55:00
6:15 AM,64.2,25.5,23,29.96,10.0,NNW,8.1,-,N/A,,Clear,330,2013-03-31 11:15:00
6:35 AM,63.7,24.8,23,29.96,10.0,Calm,Calm,-,N/A,,Scattered Clouds,0,2013-03-31 11:35:00
6:55 AM,65.3,24.6,21,29.98,10.0,NW,11.5,-,N/A,,Clear,320,2013-03-31 11:55:00
7:15 AM,65.5,23.7,21,29.99,10.0,North,17.3,23.0,N/A,,Clear,350,2013-03-31 12:15:00
7:35 AM,64.4,24.3,22,30.00,10.0,North,21.9,31.1,N/A,,Clear,350,2013-03-31 12:35:00
7:55 AM,61.2,27.5,28,30.02,5.0,NNE,20.7,32.2,N/A,,Haze,30,2013-03-31 12:55:00
8:15 AM,54.5,43.7,67,30.05,4.0,NE,25.3,34.5,N/A,,Haze,40,2013-03-31 13:15:00
8:35 AM,54.5,43.7,67,30.08,10.0,NE,21.9,28.8,N/A,,Clear,40,2013-03-31 13:35:00
8:55 AM,54.5,43.7,67,30.09,10.0,NE,18.4,33.4,N/A,,Clear,40,2013-03-31 13:55:00
9:15 AM,54.9,43.5,66,30.10,10.0,NE,26.5,32.2,N/A,,Clear,40,2013-03-31 14:15:00
9:55 AM,56.5,43.3,61,30.11,10.0,NE,26.5,31.1,N/A,,Clear,50,2013-03-31 14:55:00
10:15 AM,57.7,43.7,60,30.12,10.0,ENE,26.5,34.5,N/A,,Clear,60,2013-03-31 15:15:00
10:35 AM,58.5,43.7,58,30.11,10.0,ENE,24.2,33.4,N/A,,Clear,70,2013-03-31 15:35:00
10:55 AM,59.4,43.9,57,30.12,10.0,ENE,21.9,31.1,N/A,,Clear,60,2013-03-31 15:55:00
11:15 AM,61.0,43.9,53,30.12,10.0,ENE,23.0,31.1,N/A,,Clear,60,2013-03-31 16:15:00
11:35 AM,61.9,43.9,52,30.12,10.0,ENE,19.6,26.5,N/A,,Clear,70,2013-03-31 16:35:00
11:55 AM,63.3,43.7,49,30.12,10.0,ENE,23.0,27.6,N/A,,Clear,60,2013-03-31 16:55:00
12:15 PM,64.4,43.5,47,30.12,10.0,ENE,17.3,27.6,N/A,,Clear,70,2013-03-31 17:15:00
12:35 PM,65.7,43.2,44,30.12,10.0,ENE,15.0,20.7,N/A,,Clear,60,2013-03-31 17:35:00
12:55 PM,66.6,42.8,42,30.12,10.0,ENE,18.4,24.2,N/A,,Clear,60,2013-03-31 17:55:00
1:15 PM,67.6,42.4,40,30.12,10.0,ENE,18.4,23.0,N/A,,Clear,60,2013-03-31 18:15:00
1:35 PM,68.7,42.1,38,30.11,10.0,NE,13.8,23.0,N/A,,Clear,50,2013-03-31 18:35:00
1:55 PM,69.4,41.7,37,30.11,10.0,East,12.7,20.7,N/A,,Clear,80,2013-03-31 18:55:00
2:15 PM,71.2,41.4,34,30.10,10.0,East,11.5,-,N/A,,Clear,80,2013-03-31 19:15:00
2:35 PM,70.9,41.0,34,30.09,10.0,East,6.9,10.4,N/A,,Clear,90,2013-03-31 19:35:00
2:55 PM,71.1,40.8,33,30.08,10.0,NE,9.2,18.4,N/A,,Clear,50,2013-03-31 19:55:00
3:15 PM,72.0,40.5,32,30.07,10.0,East,4.6,17.3,N/A,,Clear,100,2013-03-31 20:15:00
3:35 PM,72.7,40.5,31,30.06,10.0,East,10.4,16.1,N/A,,Clear,90,2013-03-31 20:35:00
3:55 PM,73.0,40.1,30,30.05,10.0,ESE,6.9,-,N/A,,Clear,110,2013-03-31 20:55:00
4:15 PM,73.4,40.1,30,30.05,10.0,Calm,Calm,-,N/A,,Clear,0,2013-03-31 21:15:00
4:35 PM,73.6,39.4,29,30.04,10.0,NE,8.1,-,N/A,,Clear,40,2013-03-31 21:35:00
4:55 PM,73.9,39.6,29,30.03,10.0,East,6.9,-,N/A,,Clear,100,2013-03-31 21:55:00
5:15 PM,72.7,38.8,29,30.03,10.0,Calm,Calm,-,N/A,,Clear,0,2013-03-31 22:15:00
5:35 PM,74.3,39.4,28,30.02,10.0,ENE,6.9,-,N/A,,Clear,60,2013-03-31 22:35:00
5:55 PM,73.2,38.3,28,30.01,10.0,Calm,Calm,-,N/A,,Clear,0,2013-03-31 22:55:00
6:15 PM,73.4,39.4,29,30.01,10.0,ENE,6.9,-,N/A,,Clear,70,2013-03-31 23:15:00
6:35 PM,73.4,39.2,29,30.01,10.0,East,8.1,-,N/A,,Clear,90,2013-03-31 23:35:00
6:55 PM,72.9,38.5,29,30.01,10.0,ESE,3.5,-,N/A,,Clear,110,2013-03-31 23:55:00
7:15 PM,72.5,38.7,29,30.01,10.0,Calm,Calm,-,N/A,,Clear,0,2013-04-01 00:15:00
7:35 PM,71.8,39.2,31,30.02,10.0,East,4.6,-,N/A,,Clear,80,2013-04-01 00:35:00
7:55 PM,70.9,38.7,31,30.02,10.0,Calm,Calm,-,N/A,,Clear,0,2013-04-01 00:55:00
8:15 PM,69.4,38.1,32,30.02,10.0,Calm,Calm,-,N/A,,Clear,0,2013-04-01 01:15:00
8:35 PM,67.5,37.8,34,30.02,10.0,ENE,5.8,-,N/A,,Clear,70,2013-04-01 01:35:00
8:55 PM,65.8,37.6,35,30.03,10.0,ENE,4.6,-,N/A,,Clear,70,2013-04-01 01:55:00
9:15 PM,64.6,37.9,37,30.04,10.0,East,4.6,-,N/A,,Clear,80,2013-04-01 02:15:00
9:35 PM,62.8,38.5,41,30.04,10.0,East,3.5,-,N/A,,Clear,90,2013-04-01 02:35:00
9:55 PM,61.9,38.3,42,30.04,10.0,East,5.8,-,N/A,,Clear,100,2013-04-01 02:55:00
10:15 PM,60.6,38.7,44,30.05,10.0,ESE,5.8,-,N/A,,Clear,110,2013-04-01 03:15:00
10:35 PM,59.7,39.4,47,30.05,10.0,ESE,5.8,-,N/A,,Clear,120,2013-04-01 03:35:00
10:55 PM,58.3,38.7,48,30.05,10.0,SE,5.8,-,N/A,,Clear,130,2013-04-01 03:55:00
11:15 PM,58.5,38.3,47,30.05,10.0,SE,6.9,-,N/A,,Clear,130,2013-04-01 04:15:00
11:35 PM,59.2,38.8,47,30.05,10.0,SE,8.1,-,N/A,,Clear,130,2013-04-01 04:35:00
11:55 PM,57.7,38.7,49,30.05,10.0,SE,6.9,-,N/A,,Clear,140,2013-04-01 04:55:00